| time (UTC) | temp C | wind direction | speed KPH | gust KPH | rain 1hr cm | rain 24hr cm | rain mn cm | humidity % | barometer mb |
| 20260904004541 | 23 | 0 | 0.0 | 0.0 | 0.00 | 1.52 | 1.47 | 91 | 1013.3 |
| 20260904003035 | 23 | 0 | 0.0 | 0.0 | 0.00 | 1.52 | 1.47 | 90 | 1013.1 |
| 20260904001533 | 23 | 0 | 0.0 | 0.0 | 0.00 | 1.52 | 1.47 | 89 | 1012.8 |
| 20260904000034 | 23 | 0 | 0.0 | 0.0 | 0.00 | 1.52 | 1.47 | 88 | 1012.7 |
| 20260903234541 | 24 | 0 | 0.0 | 0.0 | 0.00 | 1.52 | 1.47 | 87 | 1013.0 |
| 20260903233034 | 25 | 0 | 0.0 | 0.0 | 0.00 | 1.52 | 1.47 | 85 | 1013.0 |
| 20260903231534 | 25 | 0 | 0.0 | 0.0 | 0.03 | 1.52 | 1.47 | 85 | 1013.0 |
| 20260903230033 | 26 | 0 | 0.0 | 0.0 | 0.03 | 1.52 | 1.47 | 82 | 1012.6 |
| 20260903224532 | 26 | 0 | 0.0 | 0.0 | 0.03 | 1.55 | 1.47 | 81 | 1012.5 |
| 20260903223042 | 26 | 0 | 0.0 | 0.0 | 0.03 | 1.55 | 1.47 | 79 | 1012.5 |
| 20260903221533 | 27 | 0 | 0.0 | 0.0 | 0.00 | 1.52 | 1.47 | 79 | 1012.5 |
| 20260903220040 | 27 | 0 | 0.0 | 1.6 | 0.00 | 1.52 | 1.47 | 81 | 1012.3 |
| 20260903214535 | 28 | 0 | 0.0 | 3.2 | 0.00 | 1.52 | 1.47 | 77 | 1012.0 |
| 20260903213038 | 28 | 292 | 0.0 | 0.0 | 0.00 | 1.52 | 1.47 | 76 | 1012.1 |
| 20260903211602 | 28 | 0 | 0.0 | 3.2 | 0.00 | 1.52 | 1.47 | 74 | 1012.2 |
| 20260903210035 | 28 | 0 | 0.0 | 4.8 | 0.00 | 1.52 | 1.47 | 73 | 1012.2 |
| 20260903204533 | 28 | 0 | 0.0 | 0.0 | 0.00 | 1.52 | 1.47 | 77 | 1012.2 |
| 20260903203032 | 28 | 0 | 0.0 | 4.8 | 0.00 | 1.52 | 1.47 | 73 | 1012.4 |
| 20260903201534 | 29 | 0 | 0.0 | 6.4 | 0.00 | 1.52 | 1.47 | 68 | 1012.4 |
| 20260903200032 | 29 | 0 | 0.0 | 6.4 | 0.00 | 1.52 | 1.47 | 67 | 1012.5 |
| 20260903194534 | 29 | 0 | 0.0 | 6.4 | 0.00 | 1.52 | 1.47 | 67 | 1012.4 |
| 20260903193035 | 29 | 246 | 1.6 | 11.3 | 0.00 | 1.52 | 1.47 | 69 | 1012.6 |
| 20260903191532 | 29 | 0 | 0.0 | 9.7 | 0.00 | 1.52 | 1.47 | 68 | 1012.9 |
| 20260903190033 | 28 | 0 | 0.0 | 4.8 | 0.00 | 1.52 | 1.47 | 69 | 1013.1 |
| 20260903184531 | 28 | 264 | 1.6 | 9.7 | 0.00 | 1.52 | 1.47 | 71 | 1013.2 |
| 20260903183033 | 28 | 254 | 0.0 | 6.4 | 0.00 | 1.52 | 1.47 | 72 | 1013.2 |
| 20260903181534 | 28 | 0 | 0.0 | 6.4 | 0.00 | 1.52 | 1.47 | 71 | 1013.5 |
| 20260903180035 | 28 | 308 | 0.0 | 8.0 | 0.00 | 1.52 | 1.47 | 72 | 1013.8 |
| 20260903174552 | 27 | 0 | 1.6 | 6.4 | 0.00 | 1.52 | 1.47 | 73 | 1013.8 |
| 20260903173039 | 27 | 0 | 0.0 | 8.0 | 0.00 | 1.52 | 1.47 | 76 | 1014.0 |
| 20260903171535 | 27 | 0 | 1.6 | 6.4 | 0.00 | 1.52 | 1.47 | 79 | 1014.2 |
| 20260903170042 | 26 | 0 | 0.0 | 12.9 | 0.00 | 1.52 | 1.47 | 81 | 1014.2 |
| 20260903164538 | 26 | 0 | 0.0 | 4.8 | 0.00 | 1.52 | 1.47 | 84 | 1014.8 |
| 20260903163032 | 25 | 0 | 0.0 | 6.4 | 0.00 | 1.52 | 1.47 | 84 | 1014.9 |
| 20260903161531 | 25 | 0 | 0.0 | 1.6 | 0.00 | 1.52 | 1.47 | 86 | 1015.3 |
| 20260903160035 | 25 | 0 | 0.0 | 6.4 | 0.00 | 1.52 | 1.47 | 87 | 1015.4 |
| 20260903154535 | 25 | 0 | 0.0 | 6.4 | 0.00 | 1.52 | 1.47 | 86 | 1015.5 |
| 20260903153036 | 25 | 0 | 0.0 | 6.4 | 0.00 | 1.52 | 1.47 | 89 | 1015.8 |
| 20260903151542 | 25 | 234 | 0.0 | 4.8 | 0.00 | 1.52 | 1.47 | 90 | 1015.8 |
| 20260903150034 | 23 | 0 | 0.0 | 6.4 | 0.00 | 1.52 | 1.47 | 92 | 1015.6 |
| 20260903144534 | 23 | 0 | 0.0 | 4.8 | 0.00 | 1.52 | 1.47 | 94 | 1015.8 |
| 20260903143037 | 22 | 0 | 0.0 | 4.8 | 0.00 | 1.52 | 1.47 | 97 | 1016.0 |
| 20260903141535 | 22 | 0 | 0.0 | 4.8 | 0.00 | 1.52 | 1.47 | 97 | 1015.7 |
| 20260903140035 | 22 | 0 | 0.0 | 3.2 | 0.00 | 1.52 | 1.47 | 98 | 1015.6 |
| 20260903134532 | 21 | 0 | 0.0 | 1.6 | 0.00 | 1.52 | 1.47 | 98 | 1015.3 |
| 20260903133033 | 21 | 0 | 0.0 | 0.0 | 0.00 | 1.52 | 1.47 | 98 | 1015.5 |
| 20260903131537 | 21 | 0 | 0.0 | 0.0 | 0.00 | 1.52 | 1.47 | 98 | 1015.5 |
| 20260903130030 | 21 | 0 | 0.0 | 0.0 | 0.00 | 1.52 | 1.47 | 98 | 1015.9 |
| 20260903124539 | 21 | 0 | 0.0 | 0.0 | 0.00 | 1.52 | 1.47 | 98 | 1015.7 |
| 20260903123036 | 21 | 0 | 0.0 | 3.2 | 0.00 | 1.52 | 1.47 | 98 | 1015.6 |
| 20260903121530 | 20 | 0 | 0.0 | 3.2 | 0.00 | 1.52 | 1.47 | 98 | 1015.4 |
| 20260903120031 | 20 | 0 | 0.0 | 3.2 | 0.00 | 1.52 | 1.47 | 98 | 1015.2 |
| 20260903114534 | 20 | 0 | 0.0 | 3.2 | 0.00 | 1.52 | 1.47 | 98 | 1014.5 |
| 20260903113033 | 20 | 0 | 1.6 | 4.8 | 0.00 | 1.52 | 1.47 | 98 | 1015.5 |
| 20260903111555 | 20 | 0 | 0.0 | 4.8 | 0.00 | 1.52 | 1.47 | 98 | 1015.7 |
| 20260903110036 | 20 | 0 | 0.0 | 4.8 | 0.00 | 1.52 | 1.47 | 98 | 1016.1 |
| 20260903104547 | 20 | 0 | 0.0 | 0.0 | 0.00 | 1.55 | 1.47 | 98 | 1016.2 |
| 20260903103032 | 20 | 220 | 0.0 | 4.8 | 0.03 | 1.55 | 1.47 | 98 | 1016.1 |
| 20260903101539 | 20 | 0 | 0.0 | 0.0 | 0.05 | 1.55 | 1.47 | 98 | 1015.9 |
| 20260903100036 | 20 | 0 | 0.0 | 1.6 | 0.13 | 1.55 | 1.47 | 98 | 1016.1 |
| 20260903094532 | 20 | 0 | 0.0 | 1.6 | 0.20 | 1.55 | 1.47 | 98 | 1015.4 |
| 20260903093039 | 20 | 0 | 0.0 | 4.8 | 0.25 | 1.52 | 1.45 | 98 | 1015.9 |
| 20260903091534 | 20 | 0 | 0.0 | 8.0 | 0.33 | 1.47 | 1.40 | 98 | 1015.7 |
| 20260903090033 | 20 | 0 | 0.0 | 3.2 | 0.38 | 1.42 | 1.32 | 98 | 1015.9 |
| 20260903084536 | 20 | 0 | 0.0 | 4.8 | 0.36 | 1.32 | 1.27 | 98 | 1016.8 |
| 20260903083033 | 20 | 0 | 0.0 | 0.0 | 0.28 | 1.27 | 1.19 | 98 | 1017.6 |
| 20260903081534 | 20 | 0 | 0.0 | 0.0 | 0.15 | 1.14 | 1.07 | 98 | 1017.1 |
| 20260903080033 | 20 | 0 | 0.0 | 0.0 | 0.05 | 1.04 | 0.97 | 98 | 1017.9 |
| 20260903074537 | 20 | 0 | 0.0 | 0.0 | 0.00 | 0.99 | 0.91 | 98 | 1017.7 |
| 20260903073042 | 20 | 0 | 0.0 | 0.0 | 0.08 | 0.99 | 0.91 | 98 | 1016.8 |
| 20260903071535 | 20 | 0 | 0.0 | 0.0 | 0.20 | 0.99 | 0.91 | 98 | 1016.8 |
| 20260903070039 | 20 | 0 | 0.0 | 0.0 | 0.23 | 0.99 | 0.91 | 98 | 1016.9 |
| 20260903064534 | 20 | 0 | 0.0 | 0.0 | 0.28 | 0.99 | 0.91 | 98 | 1016.7 |
| 20260903063035 | 20 | 0 | 0.0 | 0.0 | 0.51 | 0.91 | 0.84 | 97 | 1017.3 |
| 20260903061551 | 20 | 0 | 0.0 | 8.0 | 0.58 | 0.79 | 0.71 | 97 | 1016.9 |
| 20260903060034 | 20 | 269 | 0.0 | 6.4 | 0.66 | 0.76 | 0.69 | 97 | 1017.3 |
| 20260903054534 | 20 | 0 | 0.0 | 0.0 | 0.64 | 0.71 | 0.64 | 97 | 1017.4 |
| 20260903053034 | 20 | 0 | 0.0 | 6.4 | 0.30 | 0.38 | 0.30 | 98 | 1019.0 |
| 20260903051534 | 20 | 0 | 0.0 | 0.0 | 0.13 | 0.20 | 0.13 | 97 | 1018.9 |
| 20260903050035 | 20 | 0 | 0.0 | 0.0 | 0.00 | 0.08 | 0.00 | 97 | 1018.5 |
| 20260903044531 | 20 | 0 | 0.0 | 1.6 | 0.03 | 0.08 | 0.00 | 97 | 1018.5 |
| 20260903043037 | 20 | 0 | 0.0 | 0.0 | 0.03 | 0.08 | 0.00 | 97 | 1018.5 |
| 20260903041539 | 20 | 0 | 0.0 | 0.0 | 0.03 | 0.08 | 0.00 | 97 | 1018.5 |
| 20260903040036 | 20 | 0 | 0.0 | 0.0 | 0.03 | 0.08 | 0.00 | 97 | 1018.7 |
| 20260903034533 | 20 | 0 | 0.0 | 0.0 | 0.00 | 0.05 | 0.05 | 97 | 1018.9 |
| 20260903033031 | 20 | 0 | 0.0 | 0.0 | 0.00 | 0.05 | 0.05 | 97 | 1018.9 |
| 20260903031534 | 20 | 0 | 0.0 | 0.0 | 0.00 | 0.05 | 0.05 | 97 | 1018.6 |
| 20260903024535 | 20 | 0 | 0.0 | 3.2 | 0.00 | 0.05 | 0.05 | 97 | 1018.2 |
| 20260903023034 | 20 | 0 | 0.0 | 0.0 | 0.00 | 0.05 | 0.05 | 97 | 1018.5 |
| 20260903021535 | 20 | 0 | 0.0 | 1.6 | 0.00 | 0.05 | 0.05 | 97 | 1018.6 |
| 20260903020033 | 20 | 0 | 0.0 | 4.8 | 0.00 | 0.05 | 0.05 | 97 | 1018.5 |
| 20260903014533 | 20 | 0 | 0.0 | 3.2 | 0.00 | 0.05 | 0.05 | 97 | 1018.4 |
| 20260903013041 | 20 | 0 | 0.0 | 6.4 | 0.00 | 0.05 | 0.05 | 97 | 1018.4 |
| 20260903011534 | 20 | 0 | 0.0 | 4.8 | 0.00 | 0.05 | 0.05 | 97 | 1018.4 |
| 20260903010036 | 20 | 0 | 0.0 | 0.0 | 0.00 | 0.05 | 0.05 | 97 | 1018.8 |